Regional Weather Roundup
Issued by NWS

Home | Current Version | Previous Version | Text Only | Print | Product List | Glossary Off
Versions: 1 2 3 4 5 6 7 8 9 10 11 12 13 14 15 16 17 18 19 20 21 22 23 24 25 26 27 28 29 30 31 32 33 34 35 36 37 38 39 40 41 42 43 44 45 46 47 48 49 50

000
ASUS43 KBIS 270210
RWRND

NORTH DAKOTA REGIONAL WEATHER ROUNDUP
NATIONAL WEATHER SERVICE BISMARCK ND
900 PM CDT TUE AUG 26 2014

NOTE: "FAIR" INDICATES FEW OR NO CLOUDS BELOW 12,000 FEET WITH NO
SIGNIFICANT WEATHER AND/OR OBSTRUCTIONS TO VISIBILITY.


NDZ001>003-009>011-017-270300-
NORTHWEST NORTH DAKOTA

CITY           SKY/WX    TMP DP  RH WIND       PRES   REMARKS
WILLISTON      CLEAR     64  47  53 CALM      30.10S
MINOT          CLEAR     63  47  55 S6        30.11S
MINOT AFB      MOCLDY    61  52  71 SW8       30.11R
$$

NDZ018>021-031>035-040>046-270300-
SOUTHWEST NORTH DAKOTA

CITY           SKY/WX    TMP DP  RH WIND       PRES   REMARKS
BISMARCK       CLOUDY    57  54  89 SE5       30.17R
DICKINSON      CLEAR     55  52  89 SE8       30.14R
GARRISON         N/A     58  53  84 SE3       30.13S
HETTINGER ARPT CLEAR     56  51  84 E6        30.16R
$$

NDZ004>008-012>016-024-026-027-054-270300-
NORTHEAST NORTH DAKOTA

CITY           SKY/WX    TMP DP  RH WIND       PRES   REMARKS
GRAND FORKS    PTCLDY    60  55  83 S7        30.12R
GRND FRKS AFB  PTCLDY    58  57  98 SW5       30.13R
DEVILS LAKE    PTCLDY    61  48  63 CALM      30.12R
$$

NDZ022-023-025-028>030-036>039-047>053-270300-
SOUTHEAST NORTH DAKOTA

CITY           SKY/WX    TMP DP  RH WIND       PRES   REMARKS
FARGO          MOCLDY    60  57  89 N5        30.14S
JAMESTOWN      CLOUDY    58  56  93 S3        30.16R
$$




USA.gov is the U.S. government's official web portal to all federal, state and local government web resources and services.